Year,Month,Day,Hour,Minute,Value (Times are PST for temperature in C)
2022,10,03,00,00,13.90
2022,10,03,00,01,13.90
2022,10,03,00,02,13.90
2022,10,03,00,03,13.90
2022,10,03,00,04,13.90
2022,10,03,00,05,13.90
2022,10,03,00,06,13.90
2022,10,03,00,07,13.90
2022,10,03,00,08,13.90
2022,10,03,00,09,13.90
2022,10,03,00,10,13.90
2022,10,03,00,11,13.90
2022,10,03,00,12,13.80
2022,10,03,00,13,13.80
2022,10,03,00,14,13.80
2022,10,03,00,15,13.80
2022,10,03,00,16,13.70
2022,10,03,00,17,13.70
2022,10,03,00,18,13.70
2022,10,03,00,19,13.60
2022,10,03,00,20,13.60
2022,10,03,00,21,13.60
2022,10,03,00,22,13.60
2022,10,03,00,23,13.60
2022,10,03,00,24,13.60
2022,10,03,00,25,13.60
2022,10,03,00,26,13.60
2022,10,03,00,27,13.60
2022,10,03,00,28,13.50
2022,10,03,00,29,13.50
2022,10,03,00,30,13.50
2022,10,03,00,31,13.50
2022,10,03,00,32,13.50
2022,10,03,00,33,13.50
2022,10,03,00,34,13.50
2022,10,03,00,35,13.50
2022,10,03,00,36,13.50
2022,10,03,00,37,13.50
2022,10,03,00,38,13.50
2022,10,03,00,39,13.50
2022,10,03,00,40,13.50
2022,10,03,00,41,13.40
2022,10,03,00,42,13.40
2022,10,03,00,43,13.40
2022,10,03,00,44,13.40
2022,10,03,00,45,13.40
2022,10,03,00,46,13.40
2022,10,03,00,47,13.40
2022,10,03,00,48,13.40
2022,10,03,00,49,13.40
2022,10,03,00,50,13.40
2022,10,03,00,51,13.40
2022,10,03,00,52,13.40
2022,10,03,00,53,13.40
2022,10,03,00,54,13.30
2022,10,03,00,55,13.30
2022,10,03,00,56,13.30
2022,10,03,00,57,13.30
2022,10,03,00,58,13.30
2022,10,03,00,59,13.30
2022,10,03,01,00,13.30
2022,10,03,01,01,13.40
2022,10,03,01,02,13.40
2022,10,03,01,03,13.40
2022,10,03,01,04,13.40
2022,10,03,01,05,13.40
2022,10,03,01,06,13.40
2022,10,03,01,07,13.40
2022,10,03,01,08,13.40
2022,10,03,01,09,13.40
2022,10,03,01,10,13.40
2022,10,03,01,11,13.40
2022,10,03,01,12,13.40
2022,10,03,01,13,13.40
2022,10,03,01,14,13.40
2022,10,03,01,15,13.30
2022,10,03,01,16,13.30
2022,10,03,01,17,13.30
2022,10,03,01,18,13.30
2022,10,03,01,19,13.30
2022,10,03,01,20,13.30
2022,10,03,01,21,13.30
2022,10,03,01,22,13.30
2022,10,03,01,23,13.30
2022,10,03,01,24,13.30
2022,10,03,01,25,13.30
2022,10,03,01,26,13.30
2022,10,03,01,27,13.30
2022,10,03,01,28,13.20
2022,10,03,01,29,13.20
2022,10,03,01,30,13.20
2022,10,03,01,31,13.20
2022,10,03,01,32,13.20
2022,10,03,01,33,13.20
2022,10,03,01,34,13.20
2022,10,03,01,35,13.20
2022,10,03,01,36,13.20
2022,10,03,01,37,13.20
2022,10,03,01,38,13.20
2022,10,03,01,39,13.20
2022,10,03,01,40,13.20
2022,10,03,01,41,13.20
2022,10,03,01,42,13.20
2022,10,03,01,43,13.20
2022,10,03,01,44,13.20
2022,10,03,01,45,13.20
2022,10,03,01,46,13.10
2022,10,03,01,47,13.10
2022,10,03,01,48,13.10
2022,10,03,01,49,13.10
2022,10,03,01,50,13.10
2022,10,03,01,51,13.10
2022,10,03,01,52,13.10
2022,10,03,01,53,13.10
2022,10,03,01,54,13.00
2022,10,03,01,55,13.00
2022,10,03,01,56,13.00
2022,10,03,01,57,12.90
2022,10,03,01,58,12.90
2022,10,03,01,59,12.90
2022,10,03,02,00,12.90
2022,10,03,02,01,12.90
2022,10,03,02,02,12.80
2022,10,03,02,03,12.80
2022,10,03,02,04,12.80
2022,10,03,02,05,12.80
2022,10,03,02,06,12.80
2022,10,03,02,07,12.80
2022,10,03,02,08,12.80
2022,10,03,02,09,12.80
2022,10,03,02,10,12.80
2022,10,03,02,11,12.80
2022,10,03,02,12,12.80
2022,10,03,02,13,12.80
2022,10,03,02,14,12.70
2022,10,03,02,15,12.70
2022,10,03,02,16,12.70
2022,10,03,02,17,12.70
2022,10,03,02,18,12.70
2022,10,03,02,19,12.60
2022,10,03,02,20,12.60
2022,10,03,02,21,12.60
2022,10,03,02,22,12.70
2022,10,03,02,23,12.70
2022,10,03,02,24,12.70
2022,10,03,02,25,12.70
2022,10,03,02,26,12.80
2022,10,03,02,27,12.80
2022,10,03,02,28,12.80
2022,10,03,02,29,12.80
2022,10,03,02,30,12.80
2022,10,03,02,31,12.80
2022,10,03,02,32,12.80
2022,10,03,02,33,12.80
2022,10,03,02,34,12.80
2022,10,03,02,35,12.80
2022,10,03,02,36,12.80
2022,10,03,02,37,12.80
2022,10,03,02,38,12.70
2022,10,03,02,39,12.70
2022,10,03,02,40,12.70
2022,10,03,02,41,12.70
2022,10,03,02,42,12.70
2022,10,03,02,43,12.70
2022,10,03,02,44,12.70
2022,10,03,02,45,12.60
2022,10,03,02,46,12.60
2022,10,03,02,47,12.60
2022,10,03,02,48,12.60
2022,10,03,02,49,12.60
2022,10,03,02,50,12.60
2022,10,03,02,51,12.60
2022,10,03,02,52,12.60
2022,10,03,02,53,12.60
2022,10,03,02,54,12.50
2022,10,03,02,55,12.50
2022,10,03,02,56,12.50
2022,10,03,02,57,12.50
2022,10,03,02,58,12.40
2022,10,03,02,59,12.40
2022,10,03,03,00,12.40
2022,10,03,03,01,12.40
2022,10,03,03,02,12.40
2022,10,03,03,03,12.30
2022,10,03,03,04,12.30
2022,10,03,03,05,12.30
2022,10,03,03,06,12.30
2022,10,03,03,07,12.30
2022,10,03,03,08,12.30
2022,10,03,03,09,12.30
2022,10,03,03,10,12.30
2022,10,03,03,11,12.30
2022,10,03,03,12,12.30
2022,10,03,03,13,12.30
2022,10,03,03,14,12.30
2022,10,03,03,15,12.30
2022,10,03,03,16,12.30
2022,10,03,03,17,12.30
2022,10,03,03,18,12.30
2022,10,03,03,19,12.30
2022,10,03,03,20,12.30
2022,10,03,03,21,12.30
2022,10,03,03,22,12.40
2022,10,03,03,23,12.40
2022,10,03,03,24,12.40
2022,10,03,03,25,12.40
2022,10,03,03,26,12.40
2022,10,03,03,27,12.40
2022,10,03,03,28,12.40
2022,10,03,03,29,12.40
2022,10,03,03,30,12.40
2022,10,03,03,31,12.30
2022,10,03,03,32,12.30
2022,10,03,03,33,12.30
2022,10,03,03,34,12.30
2022,10,03,03,35,12.30
2022,10,03,03,36,12.30
2022,10,03,03,37,12.20
2022,10,03,03,38,12.20
2022,10,03,03,39,12.20
2022,10,03,03,40,12.20
2022,10,03,03,41,12.20
2022,10,03,03,42,12.20
2022,10,03,03,43,12.20
2022,10,03,03,44,12.20
2022,10,03,03,45,12.20
2022,10,03,03,46,12.10
2022,10,03,03,47,12.10
2022,10,03,03,48,12.00
2022,10,03,03,49,12.00
2022,10,03,03,50,12.00
2022,10,03,03,51,12.00
2022,10,03,03,52,12.10
2022,10,03,03,53,12.10
2022,10,03,03,54,12.10
2022,10,03,03,55,12.20
2022,10,03,03,56,12.20
2022,10,03,03,57,12.20
2022,10,03,03,58,12.20
2022,10,03,03,59,12.20
2022,10,03,04,00,12.20
2022,10,03,04,01,12.20
2022,10,03,04,02,12.30
2022,10,03,04,03,12.30
2022,10,03,04,04,12.30
2022,10,03,04,05,12.30
2022,10,03,04,06,12.30
2022,10,03,04,07,12.30
2022,10,03,04,08,12.40
2022,10,03,04,09,12.40
2022,10,03,04,10,12.40
2022,10,03,04,11,12.40
2022,10,03,04,12,12.40
2022,10,03,04,13,12.40
2022,10,03,04,14,12.40
2022,10,03,04,15,12.40
2022,10,03,04,16,12.40
2022,10,03,04,17,12.40
2022,10,03,04,18,12.40
2022,10,03,04,19,12.40
2022,10,03,04,20,12.40
2022,10,03,04,21,12.40
2022,10,03,04,22,12.40
2022,10,03,04,23,12.30
2022,10,03,04,24,12.30
2022,10,03,04,25,12.30
2022,10,03,04,26,12.20
2022,10,03,04,27,12.20
2022,10,03,04,28,12.20
2022,10,03,04,29,12.10
2022,10,03,04,30,12.10
2022,10,03,04,31,12.10
2022,10,03,04,32,12.00
2022,10,03,04,33,12.00
2022,10,03,04,34,12.00
2022,10,03,04,35,12.00
2022,10,03,04,36,12.00
2022,10,03,04,37,12.00
2022,10,03,04,38,11.90
2022,10,03,04,39,11.90
2022,10,03,04,40,11.90
2022,10,03,04,41,11.90
2022,10,03,04,42,11.90
2022,10,03,04,43,11.90
2022,10,03,04,44,11.90
2022,10,03,04,45,11.90
2022,10,03,04,46,11.90
2022,10,03,04,47,11.90
2022,10,03,04,48,11.90
2022,10,03,04,49,11.90
2022,10,03,04,50,11.80
2022,10,03,04,51,11.80
2022,10,03,04,52,11.80
2022,10,03,04,53,11.80
2022,10,03,04,54,11.80
2022,10,03,04,55,11.80
2022,10,03,04,56,11.80
2022,10,03,04,57,11.80
2022,10,03,04,58,11.70
2022,10,03,04,59,11.70
2022,10,03,05,00,11.70
2022,10,03,05,01,11.70
2022,10,03,05,02,11.70
2022,10,03,05,03,11.70
2022,10,03,05,04,11.70
2022,10,03,05,05,11.70
2022,10,03,05,06,11.70
2022,10,03,05,07,11.70
2022,10,03,05,08,11.70
2022,10,03,05,09,11.70
2022,10,03,05,10,11.70
2022,10,03,05,11,11.70
2022,10,03,05,12,11.70
2022,10,03,05,13,11.70
2022,10,03,05,14,11.70
2022,10,03,05,15,11.70
2022,10,03,05,16,11.60
2022,10,03,05,17,11.60
2022,10,03,05,18,11.60
2022,10,03,05,19,11.60
2022,10,03,05,20,11.60
2022,10,03,05,21,11.60
2022,10,03,05,22,11.60
2022,10,03,05,23,11.60
2022,10,03,05,24,11.60
2022,10,03,05,25,11.70
2022,10,03,05,26,11.70
2022,10,03,05,27,11.70
2022,10,03,05,28,11.70
2022,10,03,05,29,11.70
2022,10,03,05,30,11.70
2022,10,03,05,31,11.70
2022,10,03,05,32,11.70
2022,10,03,05,33,11.70
2022,10,03,05,34,11.70
2022,10,03,05,35,11.70
2022,10,03,05,36,11.70
2022,10,03,05,37,11.70
2022,10,03,05,38,11.70
2022,10,03,05,39,11.70
2022,10,03,05,40,11.60
2022,10,03,05,41,11.60
2022,10,03,05,42,11.60
2022,10,03,05,43,11.60
2022,10,03,05,44,11.60
2022,10,03,05,45,11.60
2022,10,03,05,46,11.60
2022,10,03,05,47,11.60
2022,10,03,05,48,11.60
2022,10,03,05,49,11.60
2022,10,03,05,50,11.60
2022,10,03,05,51,11.50
2022,10,03,05,52,11.50
2022,10,03,05,53,11.50
2022,10,03,05,54,11.50
2022,10,03,05,55,11.50
2022,10,03,05,56,11.50
2022,10,03,05,57,11.50
2022,10,03,05,58,11.50
2022,10,03,05,59,11.50
2022,10,03,06,00,11.40
2022,10,03,06,01,11.40
2022,10,03,06,02,11.40
2022,10,03,06,03,11.40
2022,10,03,06,04,11.40
2022,10,03,06,05,11.40
2022,10,03,06,06,11.40
2022,10,03,06,07,11.40
2022,10,03,06,08,11.40
2022,10,03,06,09,11.40
2022,10,03,06,10,11.40
2022,10,03,06,11,11.30
2022,10,03,06,12,11.30
2022,10,03,06,13,11.30
2022,10,03,06,14,11.30
2022,10,03,06,15,11.30
2022,10,03,06,16,11.30
2022,10,03,06,17,11.30
2022,10,03,06,18,11.30
2022,10,03,06,19,11.30
2022,10,03,06,20,11.30
2022,10,03,06,21,11.30
2022,10,03,06,22,11.30
2022,10,03,06,23,11.30
2022,10,03,06,24,11.30
2022,10,03,06,25,11.30
2022,10,03,06,26,11.30
2022,10,03,06,27,11.30
2022,10,03,06,28,11.30
2022,10,03,06,29,11.30
2022,10,03,06,30,11.30
2022,10,03,06,31,11.30
2022,10,03,06,32,11.30
2022,10,03,06,33,11.30
2022,10,03,06,34,11.30
2022,10,03,06,35,11.30
2022,10,03,06,36,11.30
2022,10,03,06,37,11.30
2022,10,03,06,38,11.30
2022,10,03,06,39,11.30
2022,10,03,06,40,11.30
2022,10,03,06,41,11.30
2022,10,03,06,42,11.30
2022,10,03,06,43,11.30
2022,10,03,06,44,11.30
2022,10,03,06,45,11.30
2022,10,03,06,46,11.30
2022,10,03,06,47,11.30
2022,10,03,06,48,11.30
2022,10,03,06,49,11.30
2022,10,03,06,50,11.20
2022,10,03,06,51,11.20
2022,10,03,06,52,11.20
2022,10,03,06,53,11.10
2022,10,03,06,54,11.10
2022,10,03,06,55,11.10
2022,10,03,06,56,11.10
2022,10,03,06,57,11.10
2022,10,03,06,58,11.20
2022,10,03,06,59,11.20
2022,10,03,07,00,11.20
2022,10,03,07,01,11.20
2022,10,03,07,02,11.20
2022,10,03,07,03,11.20
2022,10,03,07,04,11.20
2022,10,03,07,05,11.20
2022,10,03,07,06,11.20
2022,10,03,07,07,11.20
2022,10,03,07,08,11.20
2022,10,03,07,09,11.20
2022,10,03,07,10,11.20
2022,10,03,07,11,11.20
2022,10,03,07,12,11.20
2022,10,03,07,13,11.20
2022,10,03,07,14,11.20
2022,10,03,07,15,11.20
2022,10,03,07,16,11.20
2022,10,03,07,17,11.20
2022,10,03,07,18,11.20
2022,10,03,07,19,11.20
2022,10,03,07,20,11.20
2022,10,03,07,21,11.20
2022,10,03,07,22,11.20
2022,10,03,07,23,11.10
2022,10,03,07,24,11.10
2022,10,03,07,25,11.10
2022,10,03,07,26,11.10
2022,10,03,07,27,11.10
2022,10,03,07,28,11.10
2022,10,03,07,29,11.10
2022,10,03,07,30,11.10
2022,10,03,07,31,11.10
2022,10,03,07,32,11.10
2022,10,03,07,33,11.10
2022,10,03,07,34,11.10
2022,10,03,07,35,11.10
2022,10,03,07,36,11.10
2022,10,03,07,37,11.10
2022,10,03,07,38,11.10
2022,10,03,07,39,11.10
2022,10,03,07,40,11.10
2022,10,03,07,41,11.10
2022,10,03,07,42,11.10
2022,10,03,07,43,11.10
2022,10,03,07,44,11.10
2022,10,03,07,45,11.20
2022,10,03,07,46,11.20
2022,10,03,07,47,11.20
2022,10,03,07,48,11.20
2022,10,03,07,49,11.20
2022,10,03,07,50,11.20
2022,10,03,07,51,11.20
2022,10,03,07,52,11.20
2022,10,03,07,53,11.20
2022,10,03,07,54,11.20
2022,10,03,07,55,11.20
2022,10,03,07,56,11.30
2022,10,03,07,57,11.30
2022,10,03,07,58,11.30
2022,10,03,07,59,11.30
2022,10,03,08,00,11.30
2022,10,03,08,01,11.30
2022,10,03,08,02,11.30
2022,10,03,08,03,11.30
2022,10,03,08,04,11.30
2022,10,03,08,05,11.30
2022,10,03,08,06,11.40
2022,10,03,08,07,11.40
2022,10,03,08,08,11.40
2022,10,03,08,09,11.40
2022,10,03,08,10,11.40
2022,10,03,08,11,11.50
2022,10,03,08,12,11.50
2022,10,03,08,13,11.60
2022,10,03,08,14,11.60
2022,10,03,08,15,11.60
2022,10,03,08,16,11.60
2022,10,03,08,17,11.70
2022,10,03,08,18,11.70
2022,10,03,08,19,11.70
2022,10,03,08,20,11.70
2022,10,03,08,21,11.70
2022,10,03,08,22,11.70
2022,10,03,08,23,11.70
2022,10,03,08,24,11.70
2022,10,03,08,25,11.80
2022,10,03,08,26,11.80
2022,10,03,08,27,11.80
2022,10,03,08,28,11.80
2022,10,03,08,29,11.90
2022,10,03,08,30,11.90
2022,10,03,08,31,11.90
2022,10,03,08,32,12.00
2022,10,03,08,33,12.00
2022,10,03,08,34,12.10
2022,10,03,08,35,12.10
2022,10,03,08,36,12.10
2022,10,03,08,37,12.20
2022,10,03,08,38,12.20
2022,10,03,08,39,12.20
2022,10,03,08,40,12.30
2022,10,03,08,41,12.30
2022,10,03,08,42,12.40
2022,10,03,08,43,12.40
2022,10,03,08,44,12.50
2022,10,03,08,45,12.50
2022,10,03,08,46,12.60
2022,10,03,08,47,12.70
2022,10,03,08,48,12.80
2022,10,03,08,49,12.80
2022,10,03,08,50,12.90
2022,10,03,08,51,13.00
2022,10,03,08,52,13.00
2022,10,03,08,53,13.10
2022,10,03,08,54,13.20
2022,10,03,08,55,13.30
2022,10,03,08,56,13.30
2022,10,03,08,57,13.40
2022,10,03,08,58,13.40
2022,10,03,08,59,13.50
2022,10,03,09,00,13.50
2022,10,03,09,01,13.60
2022,10,03,09,02,13.60
2022,10,03,09,03,13.70
2022,10,03,09,04,13.80
2022,10,03,09,05,13.80
2022,10,03,09,06,13.90
2022,10,03,09,07,14.00
2022,10,03,09,08,14.00
2022,10,03,09,09,14.10
2022,10,03,09,10,14.20
2022,10,03,09,11,14.20
2022,10,03,09,12,14.30
2022,10,03,09,13,14.30
2022,10,03,09,14,14.40
2022,10,03,09,15,14.50
2022,10,03,09,16,14.50
2022,10,03,09,17,14.60
2022,10,03,09,18,14.60
2022,10,03,09,19,14.70
2022,10,03,09,20,14.70
2022,10,03,09,21,14.80
2022,10,03,09,22,14.80
2022,10,03,09,23,14.90
2022,10,03,09,24,15.00
2022,10,03,09,25,15.10
2022,10,03,09,26,15.20
2022,10,03,09,27,15.20
2022,10,03,09,28,15.30
2022,10,03,09,29,15.40
2022,10,03,09,30,15.50
2022,10,03,09,31,15.50
2022,10,03,09,32,15.60
2022,10,03,09,33,15.70
2022,10,03,09,34,15.80
2022,10,03,09,35,15.80
2022,10,03,09,36,15.90
2022,10,03,09,37,15.90
2022,10,03,09,38,16.00
2022,10,03,09,39,16.10
2022,10,03,09,40,16.10
2022,10,03,09,41,16.20
2022,10,03,09,42,16.30
2022,10,03,09,43,16.30
2022,10,03,09,44,16.40
2022,10,03,09,45,16.50
2022,10,03,09,46,16.60
2022,10,03,09,47,16.60
2022,10,03,09,48,16.70
2022,10,03,09,49,16.80
2022,10,03,09,50,16.90
2022,10,03,09,51,17.00
2022,10,03,09,52,17.10
2022,10,03,09,53,17.20
2022,10,03,09,54,17.30
2022,10,03,09,55,17.40
2022,10,03,09,56,17.50
2022,10,03,09,57,17.60
2022,10,03,09,58,17.60
2022,10,03,09,59,17.70
2022,10,03,10,00,17.80
2022,10,03,10,01,17.80
2022,10,03,10,02,17.90
2022,10,03,10,03,17.90
2022,10,03,10,04,18.00
2022,10,03,10,05,18.00
2022,10,03,10,06,18.10
2022,10,03,10,07,18.20
2022,10,03,10,08,18.20
2022,10,03,10,09,18.30
2022,10,03,10,10,18.30
2022,10,03,10,11,18.40
2022,10,03,10,12,18.50
2022,10,03,10,13,18.50
2022,10,03,10,14,18.60
2022,10,03,10,15,18.60
2022,10,03,10,16,18.70
2022,10,03,10,17,18.80
2022,10,03,10,18,18.80
2022,10,03,10,19,18.90
2022,10,03,10,20,19.00
2022,10,03,10,21,19.10
2022,10,03,10,22,19.20
2022,10,03,10,23,19.30
2022,10,03,10,24,19.40
2022,10,03,10,25,19.40
2022,10,03,10,26,19.50
2022,10,03,10,27,19.60
2022,10,03,10,28,19.70
2022,10,03,10,29,19.70
2022,10,03,10,30,19.80
2022,10,03,10,31,19.80
2022,10,03,10,32,19.90
2022,10,03,10,33,19.90
2022,10,03,10,34,19.90
2022,10,03,10,35,19.90
2022,10,03,10,36,19.90
2022,10,03,10,37,19.90
2022,10,03,10,38,19.90
2022,10,03,10,39,19.90
2022,10,03,10,40,20.00
2022,10,03,10,41,20.10
2022,10,03,10,42,20.10
2022,10,03,10,43,20.10
2022,10,03,10,44,20.10
2022,10,03,10,45,20.10
2022,10,03,10,46,20.10
2022,10,03,10,47,20.00
2022,10,03,10,48,20.00
2022,10,03,10,49,20.10
2022,10,03,10,50,20.10
2022,10,03,10,51,20.10
2022,10,03,10,52,20.20
2022,10,03,10,53,20.20
2022,10,03,10,54,20.20
2022,10,03,10,55,20.20
2022,10,03,10,56,20.20
2022,10,03,10,57,20.20
2022,10,03,10,58,20.20
2022,10,03,10,59,20.20
2022,10,03,11,00,20.30
2022,10,03,11,01,20.30
2022,10,03,11,02,20.40
2022,10,03,11,03,20.50
2022,10,03,11,04,20.50
2022,10,03,11,05,20.60
2022,10,03,11,06,20.60
2022,10,03,11,07,20.60
2022,10,03,11,08,20.60
2022,10,03,11,09,20.60
2022,10,03,11,10,20.70
2022,10,03,11,11,20.70
2022,10,03,11,12,20.70
2022,10,03,11,13,20.70
2022,10,03,11,14,20.70
2022,10,03,11,15,20.70
2022,10,03,11,16,20.70
2022,10,03,11,17,20.60
2022,10,03,11,18,20.60
2022,10,03,11,19,20.50
2022,10,03,11,20,20.40
2022,10,03,11,21,20.40
2022,10,03,11,22,20.30
2022,10,03,11,23,20.30
2022,10,03,11,24,20.20
2022,10,03,11,25,20.10
2022,10,03,11,26,20.00
2022,10,03,11,27,19.90
2022,10,03,11,28,19.70
2022,10,03,11,29,19.50
2022,10,03,11,30,19.30
2022,10,03,11,31,19.10
2022,10,03,11,32,18.90
2022,10,03,11,33,18.90
2022,10,03,11,34,18.80
2022,10,03,11,35,18.80
2022,10,03,11,36,18.80
2022,10,03,11,37,18.80
2022,10,03,11,38,18.80
2022,10,03,11,39,18.90
2022,10,03,11,40,18.90
2022,10,03,11,41,19.00
2022,10,03,11,42,19.00
2022,10,03,11,43,19.00
2022,10,03,11,44,19.00
2022,10,03,11,45,19.00
2022,10,03,11,46,19.00
2022,10,03,11,47,19.10
2022,10,03,11,48,19.10
2022,10,03,11,49,19.10
2022,10,03,11,50,19.10
2022,10,03,11,51,19.10
2022,10,03,11,52,19.10
2022,10,03,11,53,19.10
2022,10,03,11,54,19.10
2022,10,03,11,55,19.10
2022,10,03,11,56,19.10
2022,10,03,11,57,19.10
2022,10,03,11,58,19.20
2022,10,03,11,59,19.20
2022,10,03,12,00,19.30
2022,10,03,12,01,19.40
2022,10,03,12,02,19.60
2022,10,03,12,03,19.70
2022,10,03,12,04,19.90
2022,10,03,12,05,19.90
2022,10,03,12,06,19.90
2022,10,03,12,07,19.90
2022,10,03,12,08,19.90
2022,10,03,12,09,19.90
2022,10,03,12,10,20.00
2022,10,03,12,11,20.00
2022,10,03,12,12,20.10
2022,10,03,12,13,20.20
2022,10,03,12,14,20.20
2022,10,03,12,15,20.20
2022,10,03,12,16,20.10
2022,10,03,12,17,20.00
2022,10,03,12,18,19.90
2022,10,03,12,19,19.80
2022,10,03,12,20,19.80
2022,10,03,12,21,19.70
2022,10,03,12,22,19.60
2022,10,03,12,23,19.50
2022,10,03,12,24,19.40
2022,10,03,12,25,19.30
2022,10,03,12,26,19.20
2022,10,03,12,27,19.20
2022,10,03,12,28,19.20
2022,10,03,12,29,19.20
2022,10,03,12,30,19.20
2022,10,03,12,31,19.20
2022,10,03,12,32,19.20
2022,10,03,12,33,19.20
2022,10,03,12,34,19.30
2022,10,03,12,35,19.30
2022,10,03,12,36,19.40
2022,10,03,12,37,19.40
2022,10,03,12,38,19.40
2022,10,03,12,39,19.40
2022,10,03,12,40,19.50
2022,10,03,12,41,19.50
2022,10,03,12,42,19.60
2022,10,03,12,43,19.60
2022,10,03,12,44,19.70
2022,10,03,12,45,19.70
2022,10,03,12,46,19.80
2022,10,03,12,47,19.80
2022,10,03,12,48,19.90
2022,10,03,12,49,20.00
2022,10,03,12,50,20.00
2022,10,03,12,51,20.10
2022,10,03,12,52,20.10
2022,10,03,12,53,20.10
2022,10,03,12,54,20.10
2022,10,03,12,55,20.20
2022,10,03,12,56,20.30
2022,10,03,12,57,20.30
2022,10,03,12,58,20.30
2022,10,03,12,59,20.30
2022,10,03,13,00,20.40
2022,10,03,13,01,20.40
2022,10,03,13,02,20.40
2022,10,03,13,03,20.30
2022,10,03,13,04,20.30
2022,10,03,13,05,20.20
2022,10,03,13,06,20.20
2022,10,03,13,07,20.20
2022,10,03,13,08,20.10
2022,10,03,13,09,20.10
2022,10,03,13,10,20.20
2022,10,03,13,11,20.20
2022,10,03,13,12,20.20
2022,10,03,13,13,20.20
2022,10,03,13,14,20.30
2022,10,03,13,15,20.30
2022,10,03,13,16,20.30
2022,10,03,13,17,20.30
2022,10,03,13,18,20.30
2022,10,03,13,19,20.40
2022,10,03,13,20,20.40
2022,10,03,13,21,20.40
2022,10,03,13,22,20.40
2022,10,03,13,23,20.40
2022,10,03,13,24,20.40
2022,10,03,13,25,20.40
2022,10,03,13,26,20.40
2022,10,03,13,27,20.40
2022,10,03,13,28,20.40
2022,10,03,13,29,20.40
2022,10,03,13,30,20.40
2022,10,03,13,31,20.30
2022,10,03,13,32,20.30
2022,10,03,13,33,20.40
2022,10,03,13,34,20.40
2022,10,03,13,35,20.30
2022,10,03,13,36,20.30
2022,10,03,13,37,20.30
2022,10,03,13,38,20.20
2022,10,03,13,39,20.20
2022,10,03,13,40,20.20
2022,10,03,13,41,20.10
2022,10,03,13,42,20.10
2022,10,03,13,43,20.10
2022,10,03,13,44,20.10
2022,10,03,13,45,20.10
2022,10,03,13,46,20.20
2022,10,03,13,47,20.30
2022,10,03,13,48,20.40
2022,10,03,13,49,20.50
2022,10,03,13,50,20.60
2022,10,03,13,51,20.70
2022,10,03,13,52,20.70
2022,10,03,13,53,20.70
2022,10,03,13,54,20.70
2022,10,03,13,55,20.70
2022,10,03,13,56,20.70
2022,10,03,13,57,20.70
2022,10,03,13,58,20.70
2022,10,03,13,59,20.70
2022,10,03,14,00,20.70
2022,10,03,14,01,20.70
2022,10,03,14,02,20.70
2022,10,03,14,03,20.70
2022,10,03,14,04,20.70
2022,10,03,14,05,20.70
2022,10,03,14,06,20.70
2022,10,03,14,07,20.70
2022,10,03,14,08,20.80
2022,10,03,14,09,20.70
2022,10,03,14,10,20.70
2022,10,03,14,11,20.60
2022,10,03,14,12,20.50
2022,10,03,14,13,20.40
2022,10,03,14,14,20.30
2022,10,03,14,15,20.30
2022,10,03,14,16,20.20
2022,10,03,14,17,20.30
2022,10,03,14,18,20.30
2022,10,03,14,19,20.20
2022,10,03,14,20,20.10
2022,10,03,14,21,20.10
2022,10,03,14,22,20.00
2022,10,03,14,23,20.00
2022,10,03,14,24,20.00
2022,10,03,14,25,20.10
2022,10,03,14,26,20.10
2022,10,03,14,27,20.10
2022,10,03,14,28,20.10
2022,10,03,14,29,20.10
2022,10,03,14,30,20.10
2022,10,03,14,31,20.20
2022,10,03,14,32,20.10
2022,10,03,14,33,20.10
2022,10,03,14,34,20.20
2022,10,03,14,35,20.20
2022,10,03,14,36,20.20
2022,10,03,14,37,20.20
2022,10,03,14,38,20.20
2022,10,03,14,39,20.20
2022,10,03,14,40,20.20
2022,10,03,14,41,20.30
2022,10,03,14,42,20.30
2022,10,03,14,43,20.30
2022,10,03,14,44,20.30
2022,10,03,14,45,20.30
2022,10,03,14,46,20.30
2022,10,03,14,47,20.30
2022,10,03,14,48,20.40
2022,10,03,14,49,20.60
2022,10,03,14,50,20.70
2022,10,03,14,51,20.70
2022,10,03,14,52,20.70
2022,10,03,14,53,20.70
2022,10,03,14,54,20.70
2022,10,03,14,55,20.70
2022,10,03,14,56,20.70
2022,10,03,14,57,20.70
2022,10,03,14,58,20.70
2022,10,03,14,59,20.70
2022,10,03,15,00,20.80
2022,10,03,15,01,20.80
2022,10,03,15,02,20.80
2022,10,03,15,03,20.80
2022,10,03,15,04,20.80
2022,10,03,15,05,20.90
2022,10,03,15,06,20.90
2022,10,03,15,07,21.00
2022,10,03,15,08,21.00
2022,10,03,15,09,21.00
2022,10,03,15,10,20.90
2022,10,03,15,11,20.80
2022,10,03,15,12,20.80
2022,10,03,15,13,20.90
2022,10,03,15,14,20.90
2022,10,03,15,15,20.90
2022,10,03,15,16,20.90
2022,10,03,15,17,20.90
2022,10,03,15,18,20.80
2022,10,03,15,19,20.80
2022,10,03,15,20,20.80
2022,10,03,15,21,20.80
2022,10,03,15,22,20.80
2022,10,03,15,23,20.80
2022,10,03,15,24,20.80
2022,10,03,15,25,20.70
2022,10,03,15,26,20.70
2022,10,03,15,27,20.80
2022,10,03,15,28,20.80
2022,10,03,15,29,20.80
2022,10,03,15,30,20.80
2022,10,03,15,31,20.80
2022,10,03,15,32,20.80
2022,10,03,15,33,20.90
2022,10,03,15,34,20.90
2022,10,03,15,35,21.00
2022,10,03,15,36,21.10
2022,10,03,15,37,21.10
2022,10,03,15,38,21.10
2022,10,03,15,39,21.00
2022,10,03,15,40,21.00
2022,10,03,15,41,21.00
2022,10,03,15,42,21.00
2022,10,03,15,43,21.00
2022,10,03,15,44,21.10
2022,10,03,15,45,21.10
2022,10,03,15,46,21.10
2022,10,03,15,47,21.10
2022,10,03,15,48,21.10
2022,10,03,15,49,21.20
2022,10,03,15,50,21.20
2022,10,03,15,51,21.20
2022,10,03,15,52,21.20
2022,10,03,15,53,21.20
2022,10,03,15,54,21.20
2022,10,03,15,55,21.10
2022,10,03,15,56,21.00
2022,10,03,15,57,21.00
2022,10,03,15,58,20.90
2022,10,03,15,59,20.90
2022,10,03,16,00,20.80
2022,10,03,16,01,20.80
2022,10,03,16,02,20.80
2022,10,03,16,03,20.80
2022,10,03,16,04,20.80
2022,10,03,16,05,20.70
2022,10,03,16,06,20.70
2022,10,03,16,07,20.80
2022,10,03,16,08,20.80
2022,10,03,16,09,20.80
2022,10,03,16,10,20.80
2022,10,03,16,11,20.80
2022,10,03,16,12,20.80
2022,10,03,16,13,20.80
2022,10,03,16,14,20.80
2022,10,03,16,15,20.80
2022,10,03,16,16,20.80
2022,10,03,16,17,20.80
2022,10,03,16,18,20.70
2022,10,03,16,19,20.70
2022,10,03,16,20,20.70
2022,10,03,16,21,20.70
2022,10,03,16,22,20.70
2022,10,03,16,23,20.70
2022,10,03,16,24,20.70
2022,10,03,16,25,20.70
2022,10,03,16,26,20.70
2022,10,03,16,27,20.70
2022,10,03,16,28,20.70
2022,10,03,16,29,20.70
2022,10,03,16,30,20.70
2022,10,03,16,31,20.70
2022,10,03,16,32,20.80
2022,10,03,16,33,20.80
2022,10,03,16,34,20.90
2022,10,03,16,35,20.90
2022,10,03,16,36,21.00
2022,10,03,16,37,21.10
2022,10,03,16,38,21.10
2022,10,03,16,39,21.10
2022,10,03,16,40,21.10
2022,10,03,16,41,21.10
2022,10,03,16,42,21.10
2022,10,03,16,43,21.10
2022,10,03,16,44,21.10
2022,10,03,16,45,21.10
2022,10,03,16,46,21.10
2022,10,03,16,47,21.00
2022,10,03,16,48,21.00
2022,10,03,16,49,21.00
2022,10,03,16,50,21.00
2022,10,03,16,51,21.00
2022,10,03,16,52,21.00
2022,10,03,16,53,21.00
2022,10,03,16,54,21.10
2022,10,03,16,55,21.10
2022,10,03,16,56,21.10
2022,10,03,16,57,21.20
2022,10,03,16,58,21.20
2022,10,03,16,59,21.20
2022,10,03,17,00,21.20
2022,10,03,17,01,21.30
2022,10,03,17,02,21.30
2022,10,03,17,03,21.40
2022,10,03,17,04,21.50
2022,10,03,17,05,21.50
2022,10,03,17,06,21.60
2022,10,03,17,07,21.60
2022,10,03,17,08,21.60
2022,10,03,17,09,21.50
2022,10,03,17,10,21.50
2022,10,03,17,11,21.40
2022,10,03,17,12,21.40
2022,10,03,17,13,21.30
2022,10,03,17,14,21.30
2022,10,03,17,15,21.20
2022,10,03,17,16,21.20
2022,10,03,17,17,21.20
2022,10,03,17,18,21.20
2022,10,03,17,19,21.20